TimePDT,TemperatureF,Dew PointF,Humidity,Sea Level PressureIn,VisibilityMPH,Wind Direction,Wind SpeedMPH,Gust SpeedMPH,PrecipitationIn,Events,Conditions,WindDirDegrees,DateUTC
12:52 AM,48.9,19.9,32,30.03,10.0,Calm,Calm,-,N/A,,Clear,0,2012-10-29 07:52:00
1:52 AM,51.1,19.9,29,30.02,10.0,NE,3.5,-,N/A,,Clear,40,2012-10-29 08:52:00
2:52 AM,48.0,21.0,34,30.03,10.0,NE,3.5,-,N/A,,Clear,40,2012-10-29 09:52:00
3:52 AM,48.0,21.0,34,30.02,10.0,Calm,Calm,-,N/A,,Clear,0,2012-10-29 10:52:00
4:52 AM,44.1,21.0,40,30.04,10.0,ENE,3.5,-,N/A,,Clear,60,2012-10-29 11:52:00
5:52 AM,46.0,21.9,39,30.06,10.0,Calm,Calm,-,N/A,,Clear,0,2012-10-29 12:52:00
6:52 AM,44.1,21.0,40,30.09,10.0,NNW,3.5,-,N/A,,Clear,340,2012-10-29 13:52:00
7:52 AM,48.9,21.9,35,30.11,10.0,Calm,Calm,-,N/A,,Clear,0,2012-10-29 14:52:00
8:52 AM,55.9,21.9,27,30.13,10.0,Calm,Calm,-,N/A,,Clear,0,2012-10-29 15:52:00
9:52 AM,64.9,21.9,19,30.11,10.0,Calm,Calm,-,N/A,,Clear,0,2012-10-29 16:52:00
10:52 AM,71.1,23.0,16,30.11,10.0,NNW,3.5,-,N/A,,Clear,340,2012-10-29 17:52:00
11:52 AM,73.9,19.9,13,30.09,10.0,West,3.5,-,N/A,,Clear,260,2012-10-29 18:52:00
12:52 PM,77.0,18.0,11,30.06,10.0,West,3.5,-,N/A,,Clear,270,2012-10-29 19:52:00
1:52 PM,77.0,19.0,11,30.04,10.0,Calm,Calm,-,N/A,,Clear,0,2012-10-29 20:52:00
2:52 PM,78.1,18.0,10,30.03,10.0,SSW,4.6,-,N/A,,Clear,210,2012-10-29 21:52:00
3:52 PM,77.0,18.0,11,30.02,10.0,SW,8.1,-,N/A,,Clear,220,2012-10-29 22:52:00
4:52 PM,75.9,18.0,11,30.03,10.0,WSW,6.9,-,N/A,,Clear,240,2012-10-29 23:52:00
5:52 PM,71.1,18.0,13,30.04,10.0,Calm,Calm,-,N/A,,Clear,0,2012-10-30 00:52:00
6:52 PM,63.0,19.0,18,30.06,10.0,East,4.6,-,N/A,,Clear,100,2012-10-30 01:52:00
7:52 PM,61.0,19.9,21,30.06,10.0,East,5.8,-,N/A,,Clear,80,2012-10-30 02:52:00
8:52 PM,57.9,21.0,24,30.06,10.0,Calm,Calm,-,N/A,,Clear,0,2012-10-30 03:52:00
9:52 PM,55.0,21.0,27,30.07,10.0,ENE,3.5,-,N/A,,Clear,70,2012-10-30 04:52:00
10:52 PM,51.1,21.0,31,30.06,10.0,NE,4.6,-,N/A,,Clear,50,2012-10-30 05:52:00
11:52 PM,52.0,21.9,31,30.05,10.0,East,3.5,-,N/A,,Clear,90,2012-10-30 06:52:00